Showing default

COSMOS 1900, 18665

Orbit data source: Space-Track

COSMOS 1900, 18665 is a payload satellite owned by VMF (CIS) in LEO that was launched on Sat, 12 Dec 1987 UTC via a TSIKLON-2 launch vehicle from the Tyuratam Missile And Space Complex (TTMTR). Payload-class satellites include a variety of spacecraft equipped with specific instruments for various scientific and technological missions. These include communications satellites like Starlink; space stations such as the ISS; scientific satellites like the Hubble; Earth observation satellites from companies like Planet Labs, Umbra, and HawkEye 360; GPS; miniature CubeSats for education and research; and military/defense satellites.

Loading next visibility...
Identifier
18665, 1987-101A
Orbit
LEO
Country
Flag of CISCIS
Related business
Manufacturer
KOMET/ARSL
Mission
Defense Sigint
Bus & Motor
US-A REACTOR, Unknown motor
Mass
4,300 kg wet, 1,154 kg dry
Launch date (UTC)
1987-12-12 (38 years ago)
Launch vehicle
TSIKLON-2
Launch site
Tyuratam Missile And Space Complex (TTMTR)
Object type
Payload
Rocket body
Debris
Shape & HBR
Cone + Cyl, 2.9 m
Radar Cross Section
6.586 m², Large (>1 m²)

Expand to show TLE details & history
Last TLE update: 19 hours ago

TLE from 19 hours ago
0 COSMOS 1900
1 18665U 87101A   25259.88003137  .00000094  00000-0  45140-4 0  9997
2 18665  66.0829  70.1271 0045462 266.7444  92.8461 14.55505720  8700
Epoch: 2025-09-16T21:07Z
TLE epoch observation values (Epoch: 2025-09-16T21:07:14.71Z)
Latitude
0.00006°
Longitude
117.25184°
Altitude
711.551 km
Speed
7.499 km/s
True Right ascension
04h 40m 30s
True Declination
0° 00' 00"
Sunlit
Object was in daylight at epoch
Visualization orbit readout
Latitude
Unknown
Longitude
Unknown
Altitude
Unknown
Speed
Unknown
Apparent Right ascension
Unknown
Apparent Declination
Unknown
Sunlit
N/A
Visualization observer readout
Local Sidereal Time
09:21:03
Azimuth
Unknown
Elevation
Unknown
Doppler factor
Unknown
Orbital elements
Apogee altitude
738.359 km
Perigee altitude
673.946 km
Semi-major axis
7,084.289 km
Eccentricity
0.00455
Inclination
66.0829°
RAAN
70.1271°
Arg. of periapsis
266.7444°
True anomaly
93.36626°
Mean anomaly
92.8461°
Eccentric anomaly
93.1062°
Mean motion
3.63998 °/min
Orbital period
98.9 mins
BSTAR
0.00004514
Loading maneuver chart data...
Computing Atmospheric mass density...
Loading historical data...
Loading historical data...
Loading historical data...
Loading historical data...
Loading historical data...
Loading historical data...
Loading historical data...

Documentation

Showing up to 5 results
|